Wind_Speed
69 70 71 71 72 72 73 74 74 75 76 77 77 78 78 79 79 79 79 79 79 78 78 77 77 76 76 75 74 74 74 74 74 74 74 75 76 77 78 80 82 84 86 87 89 91 93 93 93 94 95 95 94 94 94 93 91 90 90 90 92 94 94 93 93 93 93 93 93 93 92 93 93 92 91 89 88 87 87 88 90 92 92 92 92 91 90 89
68 69 70 71 71 72 73 73 74 74 75 75 76 77 77 78 79 79 79 79 79 78 78 77 77 77 76 75 75 75 75 74 74 73 73 74 74 75 76 77 78 80 81 82 84 86 87 88 89 90 91 92 92 93 92 92 91 90 90 90 93 95 95 93 93 93 93 93 93 93 92 92 92 91 89 88 88 88 89 91 92 92 92 91 91 90 90 89
66 67 69 70 71 72 72 73 73 74 74 74 75 76 76 77 78 78 79 79 79 78 78 78 77 77 76 76 76 76 75 74 74 73 73 73 74 74 75 76 77 77 78 79 81 82 82 83 84 85 87 88 89 89 89 90 89 88 88 89 93 95 93 92 91 91 91 91 91 91 91 90 90 90 89 89 89 89 90 91 91 92 91 90 90 90 89 88
63 65 66 68 69 70 71 72 73 74 74 74 75 75 76 76 77 77 78 78 78 78 78 78 78 77 76 76 76 76 76 75 74 74 74 73 73 74 74 74 75 76 76 77 78 79 79 79 80 81 83 84 85 85 86 86 86 85 85 88 92 92 91 90 89 89 89 89 89 89 89 89 89 89 89 89 89 89 89 90 90 90 90 89 89 89 88 88
60 62 64 65 67 68 69 71 72 73 74 74 75 75 75 76 76 77 77 78 78 78 78 78 78 77 77 76 77 76 76 75 75 74 74 73 73 73 73 74 74 75 75 76 76 76 76 77 77 78 79 80 80 80 82 83 82 81 82 85 87 87 87 87 86 86 86 86 86 87 87 87 88 89 89 88 87 87 88 88 88 88 88 88 88 88 87 87
57 59 61 63 64 66 67 68 70 71 72 73 74 75 75 76 76 77 77 77 77 77 78 78 77 77 77 76 76 76 75 75 74 74 73 74 73 73 73 73 74 74 75 75 75 75 75 75 75 76 77 77 76 77 78 78 76 76 78 81 82 81 83 83 82 82 82 82 83 84 85 87 88 89 88 86 86 86 86 87 87 87 88 87 87 86 85 85
55 57 59 60 62 64 65 66 67 68 70 71 72 73 74 75 76 77 77 77 77 77 77 77 77 77 76 76 76 76 75 74 74 73 73 73 73 73 73 73 73 74 74 74 74 73 73 74 74 75 75 75 75 75 75 73 71 72 74 76 77 77 79 80 79 79 80 80 82 83 84 86 87 87 85 84 84 84 84 85 86 87 87 86 85 84 83 81
52 54 56 58 59 61 62 64 65 66 67 68 69 71 72 73 75 75 76 76 76 77 76 76 76 76 76 76 76 76 75 74 73 73 73 73 73 73 73 73 73 73 74 74 73 73 73 74 74 74 74 73 72 73 71 69 68 69 71 73 74 75 77 79 78 78 79 79 81 81 83 85 85 83 81 81 81 81 81 83 84 85 84 83 81 79 77 73
50 52 53 55 57 58 60 61 62 64 65 66 67 68 69 70 71 72 73 74 75 75 75 75 75 75 74 75 75 74 74 73 72 72 72 72 72 72 72 72 72 73 73 73 74 74 74 74 73 73 72 71 71 71 70 68 68 69 71 71 72 74 76 77 76 76 76 76 77 78 80 81 80 77 76 76 77 78 78 79 80 80 78 76 74 71 68 64
48 49 51 52 54 55 57 59 60 61 62 63 64 65 66 67 68 69 70 71 72 72 72 72 73 73 72 73 73 72 72 71 70 70 70 70 70 71 71 71 71 72 72 73 74 74 73 73 72 71 71 71 71 72 70 69 69 69 71 71 71 73 74 75 74 74 73 72 72 74 76 76 73 71 70 71 71 73 74 74 74 74 72 70 68 65 62 59
46 47 48 50 51 53 54 56 57 58 59 60 61 62 63 64 65 66 66 67 68 68 69 69 69 70 70 70 70 70 70 69 68 68 68 68 68 68 68 69 69 70 71 72 72 72 72 72 72 72 72 72 73 72 71 70 70 70 71 71 71 71 72 73 74 73 71 69 69 71 72 71 69 66 65 66 67 69 70 70 70 70 68 65 64 62 59 57
44 45 46 47 49 50 52 54 55 56 57 58 59 59 60 61 62 62 63 64 64 65 65 66 66 67 67 67 67 67 67 66 66 66 66 66 66 66 66 66 67 68 69 70 70 71 71 71 71 72 72 73 73 72 72 71 71 71 71 71 71 71 72 74 75 73 69 67 68 69 68 69 68 65 63 64 65 67 68 68 69 68 65 63 62 60 57 53
42 43 44 45 47 48 50 51 53 54 55 56 56 57 58 58 59 60 60 61 61 62 62 63 64 64 64 64 64 65 64 63 64 64 64 64 64 64 64 64 65 65 66 67 67 68 68 69 69 70 71 72 72 71 71 71 71 71 70 71 72 72 73 74 73 72 69 68 69 68 67 70 69 64 63 63 65 66 66 66 66 65 63 61 59 57 55 49
41 42 42 43 45 46 47 49 50 51 53 53 54 55 55 56 57 58 58 59 59 59 60 61 61 62 61 61 62 62 61 60 61 62 62 62 62 63 63 63 63 64 64 64 65 65 65 66 67 68 70 70 70 70 69 70 70 71 71 71 71 72 73 73 72 72 72 70 70 68 67 70 69 64 63 63 63 64 63 65 64 63 60 57 56 54 52 48
40 40 41 42 43 44 45 47 48 49 50 51 52 53 53 54 55 56 56 57 57 58 58 59 59 59 58 58 59 60 59 58 59 60 60 60 61 61 62 62 62 63 63 63 63 63 63 64 66 67 68 69 68 68 68 69 70 70 70 69 70 71 71 72 72 72 71 69 68 67 67 68 66 63 62 61 61 62 62 63 62 59 56 53 53 52 49 46
38 39 39 40 41 42 44 45 46 46 47 49 50 51 52 52 53 54 54 55 56 57 57 57 57 57 56 56 57 58 57 57 57 58 58 58 59 59 59 60 60 61 61 62 62 62 63 63 64 65 66 66 66 66 67 67 68 69 68 67 67 68 68 69 69 69 67 67 67 65 64 64 63 61 59 58 59 60 59 59 57 55 51 49 50 49 46 44
37 38 38 38 39 40 42 43 44 44 45 47 48 49 50 51 52 52 53 54 55 56 56 56 56 55 54 55 56 56 56 55 55 55 56 56 56 56 57 57 58 59 59 60 61 61 61 62 63 63 63 64 64 65 65 66 66 65 64 64 64 65 65 65 66 65 64 64 63 61 59 59 58 57 55 55 56 56 55 54 53 51 48 46 46 46 43 42
36 36 37 37 37 38 39 41 42 42 44 45 46 47 48 49 50 51 52 53 54 54 54 54 54 53 54 55 55 55 55 54 54 54 54 54 54 54 55 55 56 57 57 58 59 59 59 60 61 61 61 62 62 63 64 63 62 61 61 62 62 62 62 62 63 63 61 61 60 57 55 54 53 52 51 51 52 51 50 50 50 48 46 44 44 44 41 40
35 35 36 36 36 36 37 39 40 41 42 44 45 46 47 48 48 49 51 52 52 53 52 53 53 52 53 54 54 54 54 53 52 52 52 52 52 52 53 53 53 54 55 56 56 57 57 58 58 59 59 59 60 60 60 58 58 58 59 60 60 59 59 59 60 59 57 57 56 53 51 50 49 49 49 49 49 48 47 47 47 46 44 43 42 42 40 38
34 34 35 35 35 35 36 37 38 39 40 42 43 44 45 46 47 49 51 51 51 52 52 52 53 52 53 54 54 54 52 52 52 51 51 51 50 50 50 51 51 52 52 53 54 54 55 56 56 56 56 56 57 57 56 56 56 57 58 58 57 55 55 55 55 54 53 53 51 49 48 47 47 48 49 48 46 46 45 45 44 42 41 40 40 41 39 36
33 33 34 34 35 35 35 35 36 37 39 40 41 42 44 45 47 49 50 50 51 52 52 53 52 52 54 55 55 53 52 52 51 51 51 50 49 49 49 49 49 49 49 50 51 52 52 52 52 53 52 53 53 53 53 54 55 55 55 54 53 52 51 52 52 52 51 51 50 47 46 45 46 47 47 46 45 45 44 43 42 40 38 39 40 40 38 36
31 32 33 33 33 34 35 34 35 36 37 38 40 41 43 46 47 48 49 49 51 52 53 53 53 53 54 54 54 53 52 52 50 50 50 49 48 48 48 48 47 47 47 48 48 48 48 48 48 49 49 49 49 49 50 51 52 52 52 50 50 49 49 50 50 50 49 49 48 45 44 44 44 45 46 45 45 44 44 43 41 40 39 39 40 40 38 37
30 31 32 32 32 33 34 35 35 36 37 38 39 41 43 45 46 47 47 49 51 51 53 54 53 53 54 54 54 53 52 51 51 51 51 49 48 48 48 47 46 46 47 46 46 45 45 45 45 45 45 45 46 46 47 48 49 49 49 48 48 47 47 48 48 48 47 47 46 45 44 45 45 46 46 46 46 45 44 42 41 40 39 38 39 39 39 38
31 30 30 31 31 32 33 35 35 36 36 37 39 41 42 43 44 45 47 49 50 51 53 54 53 53 54 53 53 53 53 52 51 52 51 50 49 49 48 46 46 47 47 45 44 44 43 43 42 42 43 43 44 44 45 47 48 48 48 46 46 45 45 46 46 46 46 46 46 45 46 47 47 47 47 46 46 45 44 42 40 39 37 37 38 39 39 39
30 30 30 30 30 31 32 34 36 36 36 38 39 40 40 41 42 44 46 48 49 50 53 54 54 54 52 51 54 55 54 52 52 52 52 51 51 50 48 47 48 48 47 45 43 43 42 42 42 42 43 43 43 44 45 46 47 47 47 46 44 44 45 46 46 45 45 46 46 46 47 48 47 47 46 45 44 44 43 41 40 39 38 37 38 40 40 40
30 30 30 30 30 30 30 32 36 37 37 39 40 39 39 39 41 43 45 48 49 50 53 54 54 52 51 52 56 55 54 54 53 52 52 52 52 51 49 49 50 48 46 44 43 44 43 42 42 43 43 44 43 44 45 46 46 47 48 46 44 44 45 45 46 46 46 46 46 46 47 48 48 47 45 43 43 42 42 40 40 40 40 40 39 40 40 39
31 30 30 30 30 30 30 31 34 37 39 39 39 38 38 39 40 42 43 46 49 50 52 54 53 52 51 53 55 54 55 55 53 53 54 54 53 52 50 51 51 48 45 44 45 45 43 43 43 44 44 44 44 45 46 46 46 48 48 46 44 44 45 46 46 46 45 45 45 45 47 49 49 47 44 42 42 42 41 41 40 41 41 41 40 39 39 39
32 31 31 30 30 30 30 30 32 36 39 40 38 37 38 39 39 40 41 44 47 48 50 52 53 53 51 52 54 55 56 55 54 55 55 53 53 52 52 52 51 48 45 46 47 46 44 44 44 44 44 45 45 46 46 46 46 48 47 46 44 44 45 46 46 46 45 45 45 46 47 49 49 48 45 42 42 42 42 40 40 41 41 40 39 39 39 38
33 33 32 31 30 30 30 31 31 33 36 39 39 39 39 40 40 40 40 42 45 47 49 50 51 52 51 51 54 55 55 55 56 56 54 53 53 53 54 53 51 48 46 48 48 47 46 45 44 44 45 45 46 47 46 45 46 46 46 46 45 44 45 46 46 46 45 46 46 46 46 47 48 48 47 44 42 42 41 39 39 40 40 40 40 40 39 38
33 33 33 32 32 31 31 31 32 32 34 36 39 41 41 40 40 40 41 43 44 45 47 48 50 51 50 51 53 54 54 55 55 55 54 53 53 53 54 53 51 49 48 48 49 48 48 46 45 45 46 47 47 47 45 45 45 45 45 46 46 45 45 45 46 46 45 45 46 45 45 46 47 49 49 45 41 40 39 39 39 40 40 41 40 40 39 38
34 34 35 34 33 32 31 31 32 33 33 33 37 41 41 40 41 41 43 45 45 45 46 46 47 48 49 50 52 52 53 53 53 53 53 53 52 53 53 52 51 50 48 49 50 49 48 47 46 47 47 47 47 47 45 45 46 45 46 46 47 46 45 45 45 44 43 44 44 44 44 45 47 49 49 46 41 40 39 38 39 40 40 40 40 39 39 37
35 36 36 35 34 34 32 31 32 33 33 33 34 38 41 41 42 44 47 48 47 47 47 45 45 46 47 48 48 49 49 50 51 51 51 51 51 51 52 52 51 50 49 49 50 49 48 47 47 46 46 46 46 46 45 46 46 46 45 46 46 46 45 44 43 43 43 43 43 44 45 46 47 47 48 48 43 40 39 38 39 40 39 39 38 38 38 37
36 37 38 37 36 35 32 31 33 33 33 34 34 36 38 40 44 48 50 50 49 48 47 46 45 45 45 45 45 46 46 46 47 48 49 49 49 50 50 50 49 49 49 49 49 49 47 47 46 45 45 45 46 46 46 45 45 44 44 45 45 45 44 43 43 43 44 44 44 45 46 47 47 44 46 48 45 40 39 38 39 39 39 38 38 37 37 37
38 39 40 39 38 36 33 32 34 34 34 35 35 35 35 38 46 52 53 52 51 49 48 47 46 44 44 44 45 45 44 45 46 46 47 46 47 48 49 49 48 48 48 48 48 47 46 46 45 45 45 45 46 46 45 44 43 44 45 45 44 43 43 44 44 44 44 44 44 45 46 47 46 43 44 47 46 42 41 39 39 39 39 38 38 37 37 37
39 41 42 42 40 37 33 33 35 36 35 35 36 35 36 39 46 51 53 53 51 49 49 49 48 46 46 45 46 45 44 45 44 44 44 44 46 47 47 47 46 46 46 46 46 46 46 46 45 45 45 46 46 46 45 44 44 45 45 44 44 44 44 46 46 45 44 44 44 45 46 48 46 43 42 45 46 43 42 41 39 38 38 38 38 38 37 38
41 43 44 44 41 37 34 34 36 37 36 35 35 36 39 43 44 47 50 51 51 51 50 51 50 49 48 47 48 46 45 46 45 42 41 42 44 45 45 45 43 43 44 44 44 44 44 45 44 44 45 45 46 46 45 46 45 44 45 46 46 46 46 47 46 45 45 46 46 46 48 48 45 41 40 42 44 43 42 41 40 38 38 38 39 37 33 34
44 45 45 45 42 38 37 38 39 39 38 35 34 37 41 44 45 46 46 47 50 51 51 52 51 51 50 49 50 48 46 47 46 44 42 42 43 44 45 44 43 43 44 44 43 42 42 44 43 44 45 45 46 48 48 47 46 46 47 48 47 48 47 47 47 47 47 48 49 48 48 47 44 41 40 41 42 42 42 43 41 40 39 39 40 38 32 33
48 47 46 46 43 41 41 42 41 40 40 36 35 37 41 45 47 47 45 45 46 48 51 53 53 52 51 51 52 50 47 48 48 46 45 45 44 45 46 46 43 43 45 44 43 42 42 44 44 44 46 46 47 50 49 47 47 48 49 48 48 49 49 48 48 48 48 49 49 48 47 46 43 41 40 40 41 43 43 43 43 42 41 42 43 42 40 41
51 49 47 47 46 44 45 45 43 42 41 39 38 40 42 46 49 47 46 46 44 44 47 51 53 53 52 52 53 51 48 49 49 48 48 47 44 45 46 45 44 45 46 45 44 43 44 46 46 46 48 48 49 51 51 49 49 51 51 49 49 50 49 48 49 48 48 49 49 47 47 46 43 42 42 41 41 44 45 44 44 44 44 45 46 46 46 46
53 50 49 50 49 47 47 47 45 44 43 42 43 43 44 48 50 47 46 46 44 43 44 45 48 51 52 52 52 52 50 50 50 50 50 48 46 45 45 44 44 46 46 46 45 45 46 48 48 49 51 51 52 52 52 52 51 52 52 50 49 49 48 47 48 49 48 49 49 48 47 46 44 44 45 43 43 45 46 46 46 47 47 48 49 49 49 48
55 52 51 52 51 50 49 49 48 46 46 45 46 46 46 48 50 48 46 45 44 43 43 42 42 46 49 51 52 52 51 51 53 53 52 50 48 47 46 46 47 46 46 47 47 47 48 50 52 53 53 54 54 54 54 54 53 53 54 52 49 48 48 47 48 49 49 50 50 49 48 46 45 46 46 45 45 46 47 48 48 49 50 51 51 51 51 51
57 53 53 54 53 52 52 51 50 49 49 49 48 48 48 48 51 49 46 44 44 43 42 41 40 41 44 48 51 53 52 53 55 55 53 51 50 49 49 49 49 48 48 47 48 49 50 52 55 56 56 55 56 56 56 55 54 54 54 52 50 49 49 49 50 50 50 52 52 51 49 47 47 47 47 47 47 48 48 49 50 50 52 53 53 54 53 53
59 56 55 56 55 55 54 53 52 52 53 53 51 50 50 50 52 52 46 43 43 43 41 40 40 40 40 43 48 51 53 54 55 56 55 53 52 52 51 51 50 50 50 50 50 50 51 52 55 57 57 56 56 56 56 55 54 55 55 53 51 51 51 52 52 52 53 54 54 53 52 51 50 51 50 50 50 50 50 51 51 52 53 54 55 56 55 55
60 57 57 58 58 58 57 55 55 57 57 54 52 52 52 52 54 54 48 43 43 43 41 40 40 41 41 40 42 46 50 53 55 57 56 55 54 52 51 51 52 52 52 52 51 51 51 52 54 57 57 57 56 56 55 55 55 55 55 53 53 53 53 54 55 55 56 56 57 56 55 54 53 54 54 53 53 53 54 54 54 55 56 56 57 57 57 58
56 55 56 58 60 60 60 59 60 61 59 55 55 55 53 54 56 55 50 45 44 43 41 41 42 43 42 41 41 43 47 50 52 54 56 56 54 52 51 51 52 53 54 54 54 53 53 54 55 57 59 59 59 57 56 57 59 59 57 55 55 56 56 57 57 58 59 60 60 60 58 56 56 56 56 56 56 56 56 57 57 58 58 58 59 59 59 59
49 49 50 55 59 62 62 62 63 63 61 59 58 57 55 56 57 56 52 49 47 45 43 43 44 45 45 44 44 45 46 47 48 50 53 54 53 52 52 52 52 53 55 55 56 55 56 57 57 58 60 62 62 60 58 60 62 63 62 61 60 60 60 60 61 61 63 63 64 63 62 60 59 59 59 59 59 59 60 60 60 60 60 60 60 60 60 61
43 43 45 51 56 60 60 60 61 63 63 61 59 57 56 58 58 56 55 52 50 48 46 46 46 47 47 46 47 48 48 48 48 48 50 50 50 49 50 49 50 51 53 54 55 55 55 57 57 58 59 61 62 61 60 61 63 65 66 65 64 63 63 63 64 64 65 66 67 67 65 65 64 63 63 63 63 63 64 64 64 63 63 63 62 63 63 63
38 39 42 46 52 56 57 57 58 60 60 60 58 57 58 59 59 58 57 55 53 51 49 48 48 48 48 48 49 50 50 49 49 48 47 48 47 47 47 47 47 48 50 51 53 53 53 54 55 55 56 58 58 59 59 60 62 64 66 66 65 65 65 65 65 66 67 68 69 69 68 67 67 67 66 66 66 66 66 65 65 65 64 64 64 65 65 65
35 37 39 42 46 50 53 55 57 57 57 57 57 57 58 60 60 60 58 57 56 54 52 51 51 51 50 50 51 52 52 51 50 49 48 48 47 47 47 47 47 48 50 51 52 53 52 53 53 52 53 54 55 55 56 57 59 60 62 64 64 63 62 62 63 64 66 67 69 70 69 69 68 67 67 67 67 66 66 66 66 65 65 65 65 65 65 65
32 34 36 38 42 45 49 52 55 56 54 54 55 55 57 59 61 60 59 59 58 56 54 53 53 53 53 52 53 54 54 54 53 51 50 50 50 49 49 49 49 49 50 52 53 53 52 53 53 52 52 53 53 53 54 56 57 58 58 59 58 57 55 55 56 57 59 62 64 65 66 67 67 67 66 66 66 66 66 66 66 65 65 65 65 65 65 65
28 30 32 34 37 41 45 49 52 54 52 52 52 52 54 57 59 60 60 60 59 58 56 55 55 55 55 55 54 54 55 56 55 54 53 52 52 52 52 51 51 52 52 54 54 54 53 53 53 53 53 53 53 53 54 55 56 57 56 56 55 54 53 51 51 52 53 55 57 59 60 61 61 62 63 64 64 65 66 66 65 65 65 65 65 65 65 65
24 26 28 30 33 36 41 45 48 50 50 49 49 50 51 54 56 57 58 59 59 59 58 57 57 56 57 57 56 56 56 56 57 56 55 55 55 54 54 55 55 55 55 55 55 55 54 54 54 54 54 54 54 54 54 55 56 56 56 55 55 55 55 54 53 52 52 53 53 54 54 54 54 55 56 58 60 61 62 63 63 64 64 64 65 65 65 65
Wind_Direction
256 254 253 252 250 250 249 249 249 249 249 249 249 249 249 249 249 249 250 250 251 251 251 252 252 253 253 253 254 254 254 254 254 254 253 253 253 252 252 252 252 252 252 253 253 253 254 254 255 256 257 257 258 259 259 260 260 261 261 261 262 262 262 263 264 265 266 267 267 268 268 268 269 269 269 269 269 269 269 269 269 270 271 272 273 273 274 274
255 254 253 252 251 250 249 249 248 248 248 248 248 248 248 248 249 249 249 249 250 250 251 251 252 252 253 253 253 254 254 254 254 255 255 254 254 254 253 253 253 253 253 253 253 253 254 254 255 255 255 256 257 257 258 259 260 260 261 261 261 262 263 264 264 265 266 266 267 268 268 268 268 269 269 268 268 268 269 269 270 271 272 272 273 273 273 274
255 254 253 252 251 250 249 249 248 248 248 248 248 248 248 248 248 249 249 249 249 250 250 251 251 252 252 252 253 253 254 254 255 255 255 255 255 255 255 255 254 254 254 254 254 254 255 255 255 255 255 256 256 257 258 258 259 259 260 260 261 262 263 263 264 264 265 266 267 267 267 268 268 268 268 268 269 270 270 271 272 272 272 272 273 273 274 274
255 254 253 252 251 251 250 249 249 248 247 247 247 247 247 248 248 248 249 249 249 250 250 250 251 251 252 252 252 253 253 254 254 255 255 255 256 256 256 256 256 256 256 255 255 256 256 256 256 256 256 256 257 257 257 258 258 259 259 260 261 262 263 263 263 264 265 266 266 267 267 268 268 268 268 269 270 271 271 272 272 272 273 273 273 274 274 275
254 253 252 251 251 250 250 249 249 248 248 247 247 247 247 247 247 248 248 248 249 249 250 250 250 251 251 252 252 252 253 253 254 254 255 255 256 256 256 257 257 257 257 257 257 257 257 257 257 257 257 257 258 258 258 258 259 260 260 261 262 263 263 263 264 265 265 266 266 266 267 267 267 267 268 269 270 271 271 272 272 272 273 273 273 274 274 275
254 253 252 251 250 250 249 249 249 249 248 248 247 247 247 247 247 247 248 248 248 249 249 250 250 251 251 252 252 252 253 253 253 254 254 255 255 255 256 256 257 257 257 258 258 258 258 258 258 257 258 258 258 258 259 260 261 261 261 262 262 263 264 264 264 264 265 265 266 266 266 266 267 267 268 269 270 271 272 272 272 272 273 273 273 274 276 277
255 253 251 250 250 249 249 248 248 248 248 248 247 247 247 247 247 247 247 248 248 248 249 250 250 251 251 251 252 252 252 253 253 253 254 254 254 255 255 255 256 256 257 258 258 258 258 258 258 258 258 259 260 260 261 262 262 262 262 262 262 263 263 263 263 264 264 264 265 265 266 266 267 268 270 271 271 272 272 272 272 273 273 273 275 276 277 279
256 253 252 250 249 249 248 247 247 247 247 247 247 247 247 247 247 247 247 248 248 248 249 249 250 251 251 251 252 252 252 252 253 253 253 254 254 254 254 255 255 256 256 257 257 257 257 258 258 259 261 261 262 262 262 262 261 261 260 261 262 262 262 263 263 263 264 264 264 265 266 266 267 270 271 272 273 273 273 273 273 273 274 274 275 276 278 280
257 254 252 251 249 248 248 247 247 246 246 246 246 246 247 247 247 247 247 247 248 248 249 249 250 250 251 251 252 252 252 252 252 253 253 254 254 254 254 254 254 255 255 256 256 256 257 258 259 261 262 262 262 261 261 261 261 260 260 261 262 262 263 264 264 264 265 265 266 267 267 267 269 271 273 273 274 274 273 273 273 274 274 275 276 277 278 279
257 255 254 252 250 249 248 247 246 246 245 245 245 245 246 246 246 246 247 247 247 248 248 249 249 250 250 250 251 252 252 252 252 252 253 253 253 254 254 254 254 254 255 255 255 256 257 258 259 260 260 260 260 260 261 261 260 260 261 261 262 263 264 265 265 265 266 267 267 268 268 269 271 272 273 273 273 273 273 273 274 274 274 276 277 278 278 278
258 256 255 253 251 249 248 247 246 246 245 245 245 244 245 245 245 245 246 246 247 247 247 248 248 249 249 250 250 251 251 252 252 252 252 252 253 253 254 254 254 254 255 255 256 257 257 258 258 258 258 259 259 260 261 260 260 260 261 262 263 264 265 265 265 265 267 268 269 269 270 271 272 272 272 272 273 272 273 273 273 273 275 276 276 277 277 278
258 257 256 254 253 251 249 248 246 246 245 245 244 244 244 244 244 244 244 245 245 246 246 247 247 248 248 249 250 250 251 251 251 251 251 252 252 253 253 254 254 255 255 255 256 256 257 258 258 258 259 259 260 260 261 261 261 261 262 263 263 263 264 264 266 267 269 269 268 268 270 271 270 270 272 272 272 272 273 273 272 273 274 275 275 276 276 277
259 258 257 256 254 252 250 248 247 246 245 245 244 243 243 243 243 243 243 244 244 245 245 246 246 247 248 249 249 250 250 250 251 251 251 251 252 252 253 253 254 255 255 256 256 257 257 258 258 258 259 259 260 260 261 261 262 262 262 262 262 263 263 264 267 268 267 266 265 266 268 269 269 271 271 271 270 271 271 271 271 272 274 274 275 275 275 275
261 259 258 257 256 254 251 249 247 246 245 244 244 243 243 243 243 242 242 243 243 244 244 245 245 246 247 248 249 249 249 249 250 250 251 251 252 252 252 253 254 254 255 256 256 257 257 257 257 257 258 258 259 260 261 261 261 261 261 261 262 262 263 264 265 265 265 265 266 267 267 267 269 270 269 268 269 269 269 269 270 272 273 274 274 274 273 271
262 260 260 259 257 255 253 250 248 247 245 244 244 243 243 242 242 242 242 242 242 243 243 244 245 246 247 248 249 249 249 249 250 250 250 251 251 252 252 253 253 254 255 255 256 256 256 256 256 257 257 258 259 259 259 259 259 260 260 260 261 262 263 264 264 264 265 266 266 266 265 266 267 268 267 267 267 266 266 268 270 271 273 274 273 273 272 270
263 261 261 260 259 257 254 251 249 248 246 245 244 243 242 242 242 241 241 241 242 242 243 244 244 245 246 247 248 249 249 248 249 250 250 251 251 252 253 253 253 254 254 255 255 255 256 256 256 257 257 258 259 258 258 258 258 259 260 260 261 261 262 262 263 263 264 265 264 264 265 266 266 267 267 265 265 265 266 268 269 271 272 272 272 271 271 269
263 262 262 261 260 258 256 253 250 248 247 245 244 243 242 242 241 241 241 241 241 242 242 243 244 244 245 246 247 248 248 248 248 249 250 251 251 252 252 252 253 254 254 255 255 255 255 255 256 256 257 257 257 257 257 257 258 259 259 259 259 259 259 260 261 262 262 262 263 264 264 264 265 265 264 263 264 265 267 268 269 270 270 269 269 269 269 269
264 263 262 261 261 259 257 254 251 249 247 246 244 243 242 241 241 241 241 240 241 242 242 243 244 244 244 245 246 247 247 248 248 248 249 250 250 251 251 252 252 253 253 254 254 254 254 255 255 255 255 255 256 256 257 258 258 259 258 257 256 257 258 259 259 260 261 261 261 261 261 262 262 262 262 262 263 264 265 267 268 269 269 268 269 269 269 268
265 263 262 262 261 260 258 255 252 250 247 246 244 243 242 241 241 240 240 239 240 241 242 242 243 243 243 244 245 246 246 247 247 247 248 249 250 250 251 252 252 252 253 253 253 253 253 253 253 254 254 255 255 256 256 257 256 256 255 255 255 256 257 258 259 259 259 259 260 260 259 259 259 259 259 260 261 263 264 265 267 268 270 270 270 269 269 268
267 264 263 262 261 259 258 256 254 251 248 246 244 243 242 241 240 239 238 238 238 239 240 241 241 241 242 243 243 244 245 246 247 247 247 247 248 249 250 251 252 252 253 253 253 253 252 252 253 253 254 254 254 255 255 254 254 253 254 254 255 256 256 256 257 257 257 257 257 257 257 257 258 259 259 260 261 262 263 264 266 268 270 270 269 268 268 267
269 266 264 262 261 259 257 256 254 252 248 246 244 242 241 240 239 238 237 237 237 238 239 239 239 239 240 241 242 243 244 244 245 246 246 247 248 249 250 251 252 253 253 253 252 252 252 252 253 253 253 253 254 254 254 253 253 253 253 254 254 253 253 253 254 254 254 255 255 255 255 256 258 259 260 260 259 259 260 261 263 265 266 265 266 267 267 265
271 268 265 263 262 260 258 256 254 252 249 246 244 242 240 238 238 237 237 236 237 237 238 238 238 238 239 241 242 242 242 243 244 245 246 247 247 249 250 251 251 252 252 251 251 252 252 252 252 252 253 253 253 253 252 252 252 252 252 252 251 251 250 251 252 253 254 255 256 255 254 254 255 257 258 257 256 256 258 259 260 261 261 262 264 266 266 264
274 270 267 264 262 260 258 256 254 251 248 246 244 242 240 239 238 238 237 237 237 238 239 239 238 238 239 240 241 242 242 243 244 244 245 246 247 248 249 250 251 251 251 251 251 252 252 252 252 252 252 251 251 251 250 251 251 251 250 250 249 250 250 250 251 253 254 255 256 255 254 253 251 251 253 254 256 257 258 259 260 260 261 262 263 264 265 264
275 272 269 265 263 260 257 255 254 252 249 246 244 242 241 240 239 238 237 237 237 238 239 239 239 238 239 240 242 243 242 242 243 244 245 245 246 247 248 250 250 250 250 250 251 252 251 251 250 250 249 249 249 248 249 250 250 250 249 249 249 250 250 251 252 253 254 255 256 256 255 253 251 251 251 254 257 259 260 260 261 261 261 260 260 262 262 262
276 274 271 267 264 261 258 255 253 252 250 246 244 242 241 240 239 238 237 237 237 237 239 239 239 238 239 240 242 242 242 242 242 244 245 246 246 247 248 249 249 249 249 251 251 252 251 250 249 249 249 248 248 248 248 249 250 251 251 250 250 251 251 252 253 253 254 255 256 256 255 254 253 252 253 254 257 258 260 261 262 262 260 258 257 258 259 261
278 275 272 270 266 263 260 256 253 252 250 247 245 242 241 239 238 238 237 238 237 237 239 240 239 239 238 239 241 242 243 242 242 243 245 245 246 246 247 247 248 249 250 251 252 251 250 250 249 249 249 249 248 249 249 249 251 252 252 251 251 251 252 253 254 254 254 254 255 254 254 253 253 253 254 256 257 257 259 260 261 262 260 258 257 258 258 259
280 277 273 270 267 264 261 257 253 251 249 248 247 245 241 239 238 238 238 239 238 237 239 240 240 239 237 239 241 242 243 243 242 242 243 244 246 247 248 248 249 249 250 251 251 250 250 250 249 249 249 249 249 249 250 251 252 254 254 254 253 253 254 254 254 253 253 253 253 253 253 254 254 254 254 254 254 255 257 258 260 260 260 260 259 259 259 259
280 279 275 271 268 265 262 259 255 252 250 249 249 246 242 239 237 237 237 238 239 237 238 240 240 239 238 238 240 241 242 243 243 242 243 244 246 247 248 248 249 249 250 250 250 250 249 249 249 250 251 251 251 250 251 253 254 255 256 257 255 255 254 254 253 253 252 252 251 251 253 255 256 256 253 251 252 253 255 257 258 259 260 261 259 258 258 258
278 278 277 274 269 265 262 260 257 254 252 250 248 246 243 240 237 236 236 237 238 237 237 238 239 239 238 238 239 240 241 243 243 243 243 244 245 246 247 248 249 249 249 249 250 249 248 248 249 251 251 251 251 251 252 253 255 256 258 257 255 253 253 253 252 252 252 251 251 252 253 256 257 258 255 252 251 253 255 256 256 257 258 258 257 256 256 256
276 275 275 274 272 267 263 261 258 257 254 251 249 246 244 242 239 237 236 236 236 236 236 236 238 239 237 237 239 240 241 242 243 245 244 244 244 245 246 248 248 248 247 248 248 248 248 248 248 249 250 250 251 252 252 253 254 255 255 255 254 252 252 252 252 253 253 253 253 253 253 254 257 258 258 255 253 253 254 254 255 255 256 256 256 256 255 253
274 273 273 272 272 269 265 263 260 257 255 253 250 248 245 243 241 239 237 236 235 236 236 235 237 238 237 237 238 239 241 242 243 245 245 245 245 245 246 247 247 246 246 246 247 248 248 249 248 248 250 251 252 252 252 251 252 252 253 254 254 253 252 252 252 253 253 253 254 254 253 253 255 258 260 259 256 254 252 252 254 255 256 256 256 256 255 253
272 271 271 270 270 269 267 265 261 258 256 253 251 249 247 243 241 239 238 237 236 236 236 235 236 238 238 238 239 240 240 242 243 243 244 245 245 245 246 246 246 246 245 246 247 248 248 249 249 249 250 250 251 251 250 250 251 252 252 253 254 254 253 252 252 252 251 251 252 252 252 252 253 256 261 262 259 256 255 254 255 255 255 255 255 255 255 254
270 269 269 268 267 267 267 266 263 260 257 254 251 250 248 245 241 239 238 238 237 237 237 236 236 237 239 239 239 239 239 240 241 242 243 243 244 245 246 246 246 246 246 246 247 248 248 248 248 249 249 249 249 250 250 251 252 252 252 252 254 255 255 253 252 250 250 250 250 251 253 254 254 256 261 264 263 260 257 256 256 255 254 253 253 253 254 254
268 267 267 267 266 267 266 265 265 262 258 255 253 251 250 246 241 239 239 239 239 238 238 239 237 237 238 239 239 239 238 237 238 240 242 242 243 244 245 245 245 245 246 246 247 248 248 247 247 247 248 248 249 251 251 252 252 252 251 252 253 255 255 254 252 251 250 251 251 252 253 255 255 255 257 262 263 261 258 255 253 252 252 252 252 252 254 254
267 266 266 266 266 267 266 265 264 263 259 256 254 252 250 246 242 241 241 241 241 240 239 239 238 237 237 238 240 239 238 238 238 239 241 242 243 243 244 245 245 246 246 246 247 248 248 248 247 247 247 248 249 250 250 250 250 251 252 253 253 253 253 254 254 254 254 254 254 254 254 254 255 254 255 259 261 260 259 256 252 250 250 251 251 253 256 258
266 265 265 265 266 268 267 264 262 262 259 256 255 253 250 248 246 245 244 243 242 241 240 239 239 238 237 238 239 239 239 240 239 238 240 243 244 245 246 247 246 246 247 247 247 248 248 249 248 248 248 249 249 249 248 248 249 250 251 252 252 252 253 255 257 258 258 258 257 257 257 256 256 255 254 256 258 258 257 256 253 250 251 252 252 254 256 258
266 264 264 266 267 267 264 260 259 259 259 257 255 253 251 250 249 247 246 245 243 241 241 241 240 240 239 239 240 240 240 242 241 239 239 241 244 245 245 245 245 245 246 246 246 247 249 251 250 249 249 249 250 250 248 248 249 250 250 251 252 253 254 255 257 258 259 259 259 259 259 259 258 256 253 253 255 256 256 256 254 251 251 251 252 251 245 244
266 265 265 266 266 263 260 259 259 259 259 257 254 252 251 251 250 248 247 247 245 243 241 241 241 241 240 240 241 240 240 243 244 242 240 239 240 242 243 244 244 244 246 246 246 247 249 251 252 252 251 251 252 252 251 250 251 251 251 251 253 253 254 254 255 256 257 258 258 259 259 260 260 258 254 252 253 255 255 255 255 254 252 251 252 252 247 246
266 265 265 265 264 262 260 260 259 258 258 256 253 251 250 251 250 249 248 248 247 245 243 242 242 243 242 242 243 242 240 242 244 245 245 243 241 242 244 244 244 244 245 246 246 247 249 251 252 253 254 253 253 253 253 252 251 251 252 251 252 253 254 254 255 256 256 257 258 258 259 260 260 259 258 254 253 255 255 255 255 255 254 254 253 253 253 254
267 266 265 264 263 261 260 259 258 257 256 254 252 251 251 252 253 252 250 250 249 248 247 246 245 246 245 244 245 244 242 241 242 243 244 245 244 245 247 247 246 245 244 245 245 246 248 251 252 252 253 254 254 254 254 253 252 253 253 252 252 254 255 256 257 258 258 258 259 259 259 260 261 260 260 258 256 256 256 256 256 256 256 256 256 256 257 258
267 266 264 264 263 261 259 259 258 256 255 253 252 252 252 254 256 254 252 252 251 249 249 249 248 248 247 246 246 247 245 244 244 243 243 243 243 244 245 246 246 245 244 244 244 244 246 249 251 251 251 253 253 254 254 253 253 253 253 252 252 254 256 257 257 258 259 259 259 259 260 260 261 261 260 260 258 257 257 257 257 257 257 257 257 258 259 260
267 265 264 263 262 260 259 258 257 256 254 252 251 251 252 253 256 255 253 253 253 251 250 250 250 250 248 247 246 247 247 246 246 246 244 243 243 243 243 244 244 245 245 244 244 244 245 248 251 252 251 251 252 253 254 254 254 254 255 254 253 253 254 255 256 256 257 258 259 259 258 258 258 259 259 259 258 258 257 257 257 257 257 258 259 259 260 261
265 264 263 262 261 260 259 258 257 255 253 251 250 250 251 252 255 256 254 253 254 253 251 250 249 250 249 247 246 246 245 246 247 249 248 246 244 243 243 245 245 245 245 245 245 246 246 249 252 254 254 253 253 254 255 256 257 257 257 257 256 254 254 254 254 254 255 256 257 258 258 257 257 257 258 258 258 258 258 258 258 258 258 259 260 261 262 262
263 262 261 260 260 258 257 256 255 253 252 251 251 250 250 251 253 255 254 252 252 253 252 250 248 246 246 246 246 246 245 245 247 249 250 249 248 246 246 247 248 247 247 247 246 247 248 250 253 255 256 256 256 256 257 258 258 257 257 257 257 256 255 254 254 254 254 254 255 256 257 258 258 258 258 258 258 259 259 259 259 259 259 259 260 262 263 263
261 260 258 257 257 256 254 253 251 251 251 251 250 249 249 249 251 253 253 251 251 250 250 249 248 246 243 242 243 244 244 244 245 248 250 251 250 250 248 248 249 250 249 248 247 247 248 249 251 255 257 257 257 257 258 259 258 256 255 255 255 255 255 254 254 254 255 254 254 254 255 256 257 258 258 258 258 258 259 259 259 259 260 260 261 261 262 263
261 258 254 253 253 252 251 249 249 249 249 248 247 248 248 248 250 252 253 252 250 249 247 246 247 246 244 241 240 240 241 242 243 245 247 249 250 250 249 248 249 250 251 251 250 248 248 248 249 252 255 256 256 255 256 257 258 257 254 252 252 253 254 254 255 255 255 256 256 255 255 255 255 256 257 257 257 257 257 257 258 258 259 260 261 262 262 262
261 257 252 249 250 250 250 249 248 248 248 247 247 247 247 248 249 250 251 251 249 248 246 244 244 245 245 243 242 242 242 242 241 242 244 247 248 249 249 248 248 249 251 252 252 251 251 251 250 251 253 256 257 256 254 255 257 258 256 253 251 251 252 253 254 255 256 257 258 257 257 256 256 256 256 257 257 257 258 258 258 259 259 260 260 261 261 262
261 256 250 246 246 249 250 250 248 247 248 248 247 246 245 247 248 248 249 249 248 247 245 244 243 243 243 243 243 244 243 243 243 243 243 245 246 247 247 246 245 245 247 249 251 251 251 252 251 252 253 255 257 257 256 255 255 256 257 256 254 252 252 253 254 256 257 258 258 258 258 258 257 257 257 257 257 258 258 259 259 259 259 259 259 260 260 261
261 255 250 246 244 246 247 248 248 247 246 245 245 243 243 244 245 246 247 247 247 246 245 244 243 242 242 241 242 243 244 244 244 244 244 244 245 245 245 245 244 244 244 246 247 248 249 250 250 251 252 254 256 257 258 258 257 256 257 257 256 255 254 254 255 255 256 257 258 258 257 257 257 257 257 257 257 257 257 258 258 258 258 258 258 258 259 259
261 255 250 246 244 243 244 244 246 246 245 243 242 241 240 241 242 243 244 244 245 244 244 243 242 242 242 242 241 243 244 244 244 243 243 244 244 245 245 246 246 245 245 246 247 248 248 250 250 250 251 252 253 255 257 259 260 260 260 261 261 260 257 255 254 254 255 256 256 257 257 256 256 256 256 256 256 256 256 256 257 257 258 258 258 258 258 258
261 256 251 247 244 243 242 242 244 245 244 242 241 240 238 239 240 241 241 242 242 242 242 242 241 242 242 242 242 242 244 245 245 244 244 244 244 245 245 245 245 245 246 247 249 250 251 251 253 253 253 254 255 256 257 259 261 262 264 265 267 267 265 261 258 257 256 257 257 258 257 257 257 256 255 255 255 255 255 255 255 255 256 256 257 257 258 258
263 257 252 248 244 242 242 242 243 245 245 242 240 239 239 238 239 240 240 240 241 241 240 240 240 240 241 241 241 241 242 244 244 244 243 243 243 244 245 245 245 245 245 247 249 251 252 253 254 255 256 257 258 259 259 260 261 263 264 266 267 268 268 267 265 263 261 260 259 259 259 258 258 256 256 256 256 256 256 256 255 255 255 255 256 256 257 257
Height
10622 10623 10625 10627 10629 10631 10633 10635 10638 10640 10642 10645 10648 10650 10653 10655 10657 10660 10662 10665 10667 10669 10672 10674 10677 10679 10681 10684 10686 10687 10689 10691 10694 10697 10699 10702 10704 10707 10707 10709 10712 10712 10714 10717 10719 10720 10721 10725 10730 10731 10731 10732 10733 10734 10737 10740 10744 10746 10745 10744 10740 10737 10738 10741 10741 10742 10746 10746 10746 10746 10747 10746 10745 10748 10751 10754 10756 10758 10759 10758 10755 10752 10752 10752 10754 10756 10757 10758
10614 10615 10617 10619 10621 10623 10625 10628 10630 10632 10635 10638 10640 10643 10646 10648 10650 10652 10654 10657 10659 10662 10665 10667 10669 10671 10674 10676 10678 10679 10682 10684 10687 10689 10692 10694 10696 10698 10700 10701 10703 10704 10707 10709 10710 10711 10714 10718 10721 10722 10721 10723 10725 10726 10729 10732 10736 10737 10737 10736 10729 10726 10731 10736 10735 10735 10738 10738 10739 10739 10739 10738 10737 10739 10743 10745 10746 10749 10750 10748 10747 10746 10746 10747 10747 10748 10749 10751
10606 10607 10609 10610 10612 10615 10617 10620 10622 10625 10627 10630 10633 10635 10638 10640 10642 10644 10646 10649 10652 10655 10657 10659 10662 10664 10667 10669 10670 10672 10674 10677 10680 10682 10684 10687 10688 10690 10692 10693 10695 10697 10699 10701 10701 10703 10707 10710 10712 10712 10713 10714 10716 10720 10722 10723 10727 10729 10731 10727 10719 10719 10726 10728 10729 10729 10730 10731 10732 10731 10730 10730 10728 10729 10732 10734 10737 10740 10741 10739 10739 10738 10738 10739 10739 10740 10741 10743
10599 10600 10601 10603 10605 10607 10609 10612 10614 10617 10620 10622 10625 10628 10630 10633 10635 10637 10639 10641 10644 10647 10649 10651 10654 10657 10660 10662 10663 10664 10668 10671 10673 10675 10677 10679 10681 10682 10684 10685 10687 10689 10691 10692 10693 10696 10700 10701 10703 10704 10704 10704 10708 10713 10713 10714 10719 10722 10723 10717 10711 10715 10717 10719 10722 10722 10723 10724 10723 10723 10722 10721 10720 10719 10722 10727 10731 10732 10732 10730 10730 10729 10729 10731 10732 10732 10733 10734
10592 10593 10594 10595 10597 10599 10601 10604 10606 10609 10612 10614 10617 10620 10622 10625 10627 10629 10631 10634 10637 10639 10641 10644 10647 10650 10652 10654 10655 10657 10661 10664 10665 10668 10671 10672 10674 10675 10677 10678 10679 10681 10683 10684 10686 10689 10692 10693 10695 10695 10695 10696 10701 10705 10703 10706 10713 10715 10714 10707 10705 10708 10706 10710 10715 10714 10715 10716 10715 10715 10714 10712 10711 10711 10715 10723 10725 10724 10724 10723 10721 10721 10721 10723 10724 10724 10726 10727
10585 10586 10587 10588 10590 10592 10594 10596 10598 10601 10603 10606 10609 10612 10614 10617 10619 10621 10623 10626 10629 10632 10634 10636 10639 10642 10644 10646 10648 10650 10654 10656 10659 10662 10663 10664 10666 10668 10669 10671 10672 10673 10675 10677 10679 10682 10684 10685 10686 10686 10686 10689 10694 10695 10695 10701 10707 10708 10705 10699 10699 10700 10698 10701 10707 10706 10708 10709 10706 10706 10706 10703 10702 10704 10710 10717 10718 10718 10718 10715 10713 10713 10714 10715 10715 10717 10719 10721
10578 10579 10580 10581 10583 10585 10587 10589 10591 10593 10596 10598 10601 10603 10606 10609 10611 10613 10616 10619 10621 10624 10627 10629 10632 10634 10637 10639 10640 10643 10646 10650 10653 10655 10655 10657 10659 10660 10662 10664 10665 10666 10667 10669 10672 10674 10675 10676 10676 10677 10679 10683 10687 10688 10691 10697 10700 10699 10695 10691 10691 10693 10691 10692 10698 10699 10700 10701 10698 10698 10698 10695 10694 10698 10706 10710 10710 10711 10711 10708 10706 10705 10705 10707 10709 10711 10713 10716
10572 10572 10573 10575 10576 10578 10580 10582 10584 10586 10588 10590 10593 10596 10598 10601 10603 10606 10608 10611 10614 10616 10619 10622 10624 10627 10629 10631 10632 10635 10639 10643 10645 10646 10648 10650 10651 10653 10655 10656 10658 10659 10660 10662 10664 10666 10666 10667 10668 10671 10674 10678 10680 10681 10684 10690 10691 10689 10685 10684 10684 10685 10683 10682 10689 10691 10691 10692 10691 10692 10690 10687 10690 10695 10700 10702 10701 10701 10701 10700 10697 10696 10698 10700 10703 10705 10708 10711
10566 10566 10567 10568 10570 10571 10573 10575 10577 10579 10581 10583 10586 10588 10591 10593 10596 10598 10601 10604 10606 10609 10612 10614 10617 10619 10621 10623 10624 10628 10632 10635 10638 10639 10640 10642 10643 10646 10647 10649 10651 10652 10653 10654 10656 10657 10658 10661 10664 10667 10669 10671 10672 10671 10676 10681 10681 10679 10676 10677 10678 10677 10674 10674 10680 10682 10683 10685 10685 10685 10681 10681 10686 10692 10695 10694 10692 10692 10690 10690 10689 10688 10690 10693 10696 10699 10703 10706
10560 10560 10561 10562 10563 10564 10566 10568 10570 10572 10574 10577 10579 10581 10584 10586 10589 10591 10594 10596 10599 10602 10604 10607 10609 10611 10613 10614 10617 10620 10624 10628 10631 10632 10633 10634 10636 10638 10640 10642 10643 10645 10646 10646 10648 10650 10652 10656 10658 10660 10660 10661 10662 10663 10668 10672 10672 10671 10669 10671 10671 10669 10668 10668 10671 10673 10676 10678 10679 10677 10674 10676 10682 10688 10689 10687 10685 10683 10681 10682 10682 10681 10683 10687 10690 10692 10696 10698
10554 10554 10555 10556 10557 10558 10559 10561 10563 10565 10568 10570 10572 10575 10577 10579 10582 10585 10587 10589 10592 10595 10597 10599 10601 10603 10605 10607 10610 10613 10617 10621 10622 10624 10626 10627 10628 10630 10632 10634 10635 10637 10638 10639 10641 10644 10646 10649 10651 10651 10651 10652 10654 10656 10660 10662 10664 10664 10663 10664 10664 10664 10663 10660 10660 10664 10670 10673 10672 10670 10669 10670 10675 10681 10683 10681 10679 10675 10674 10675 10674 10674 10677 10681 10683 10685 10688 10689
10548 10548 10549 10550 10551 10552 10553 10555 10557 10559 10561 10563 10566 10568 10571 10573 10576 10578 10581 10583 10585 10588 10590 10592 10594 10595 10597 10601 10603 10606 10610 10614 10614 10616 10618 10620 10622 10623 10625 10626 10628 10629 10630 10632 10635 10637 10639 10642 10643 10643 10643 10645 10646 10649 10652 10653 10656 10657 10658 10658 10657 10657 10655 10651 10652 10657 10665 10668 10664 10663 10665 10663 10666 10673 10676 10675 10672 10668 10668 10667 10666 10668 10672 10675 10676 10678 10680 10684
10542 10543 10543 10544 10545 10546 10547 10549 10550 10553 10555 10557 10559 10562 10564 10567 10569 10572 10574 10577 10579 10581 10583 10585 10586 10589 10592 10595 10596 10599 10604 10606 10607 10609 10611 10613 10615 10617 10618 10620 10621 10622 10623 10626 10628 10630 10633 10635 10635 10635 10636 10637 10638 10641 10644 10646 10647 10649 10651 10650 10649 10649 10647 10646 10648 10651 10656 10658 10655 10659 10661 10655 10657 10667 10670 10668 10665 10662 10661 10659 10659 10662 10666 10668 10669 10671 10673 10679
10537 10537 10538 10538 10539 10540 10541 10543 10544 10547 10549 10551 10553 10556 10558 10561 10563 10565 10568 10571 10573 10575 10576 10578 10580 10583 10586 10589 10589 10592 10597 10600 10600 10601 10604 10606 10608 10610 10611 10613 10614 10616 10617 10619 10621 10623 10626 10627 10627 10627 10628 10628 10631 10635 10637 10638 10639 10639 10641 10642 10642 10642 10640 10641 10643 10643 10644 10647 10649 10654 10655 10648 10651 10660 10661 10660 10658 10656 10654 10652 10653 10656 10660 10662 10662 10663 10666 10670
10532 10532 10532 10533 10533 10534 10535 10537 10539 10541 10543 10545 10547 10549 10552 10554 10557 10559 10562 10564 10566 10568 10570 10572 10574 10577 10580 10582 10583 10585 10590 10593 10593 10594 10597 10599 10601 10602 10604 10606 10608 10609 10611 10612 10614 10616 10618 10619 10619 10620 10620 10622 10625 10628 10629 10630 10630 10630 10633 10636 10636 10635 10634 10634 10635 10635 10637 10640 10643 10645 10646 10644 10646 10651 10652 10652 10650 10648 10647 10647 10648 10650 10654 10656 10654 10655 10658 10660
10527 10527 10527 10528 10528 10529 10530 10531 10533 10535 10538 10539 10541 10544 10546 10548 10550 10553 10556 10558 10560 10561 10564 10566 10568 10572 10575 10576 10577 10578 10582 10586 10587 10588 10590 10592 10594 10596 10598 10600 10601 10603 10604 10605 10607 10610 10611 10612 10612 10613 10614 10616 10618 10620 10621 10621 10621 10622 10626 10629 10629 10629 10627 10627 10627 10629 10632 10633 10634 10637 10640 10640 10640 10643 10644 10644 10642 10640 10641 10642 10642 10645 10649 10649 10646 10648 10650 10652
10522 10522 10522 10523 10523 10524 10525 10526 10528 10530 10532 10533 10535 10538 10540 10542 10544 10547 10550 10552 10554 10555 10558 10560 10563 10567 10569 10570 10571 10572 10575 10579 10581 10582 10584 10586 10588 10590 10592 10593 10595 10596 10597 10599 10601 10603 10604 10605 10606 10607 10608 10609 10610 10611 10612 10613 10614 10617 10620 10621 10621 10620 10620 10621 10622 10623 10626 10626 10627 10632 10634 10634 10634 10636 10637 10636 10634 10635 10636 10636 10636 10639 10643 10642 10640 10641 10644 10646
10517 10517 10518 10518 10519 10519 10520 10521 10523 10525 10526 10528 10530 10532 10534 10536 10539 10542 10544 10546 10548 10549 10552 10555 10558 10561 10562 10562 10564 10565 10568 10572 10575 10577 10578 10579 10582 10583 10585 10587 10589 10590 10591 10592 10594 10596 10597 10598 10599 10600 10601 10602 10603 10603 10604 10607 10609 10611 10612 10612 10612 10613 10614 10615 10615 10617 10620 10619 10621 10626 10628 10628 10629 10629 10629 10629 10628 10630 10630 10630 10630 10632 10635 10636 10635 10635 10639 10641
10513 10513 10513 10514 10514 10515 10516 10517 10518 10520 10521 10522 10524 10526 10529 10531 10533 10536 10537 10539 10542 10544 10547 10549 10551 10555 10556 10556 10558 10559 10562 10566 10568 10570 10573 10574 10576 10577 10579 10581 10582 10583 10585 10586 10588 10589 10590 10591 10592 10593 10594 10596 10596 10597 10599 10602 10602 10602 10603 10604 10606 10609 10609 10609 10609 10611 10614 10613 10616 10621 10622 10622 10622 10621 10622 10623 10623 10624 10624 10625 10626 10627 10628 10630 10629 10629 10633 10635
10509 10509 10509 10509 10510 10510 10511 10512 10513 10515 10516 10517 10519 10521 10523 10525 10527 10529 10530 10533 10536 10538 10540 10542 10545 10549 10550 10549 10551 10554 10558 10560 10562 10564 10567 10569 10570 10572 10573 10575 10576 10577 10579 10580 10581 10582 10583 10585 10586 10587 10589 10590 10590 10591 10594 10594 10594 10594 10596 10598 10601 10604 10604 10603 10604 10605 10607 10608 10611 10615 10616 10616 10616 10615 10615 10617 10618 10618 10619 10620 10621 10623 10624 10624 10623 10623 10627 10630
10505 10505 10505 10505 10505 10506 10507 10508 10509 10510 10511 10512 10514 10516 10518 10519 10520 10521 10524 10528 10530 10531 10533 10535 10539 10542 10542 10542 10545 10550 10553 10554 10556 10558 10560 10563 10565 10566 10567 10569 10570 10572 10573 10574 10574 10575 10577 10579 10581 10582 10583 10584 10584 10586 10587 10587 10587 10589 10590 10593 10596 10598 10599 10598 10598 10599 10601 10603 10606 10609 10611 10611 10610 10609 10609 10611 10613 10613 10614 10616 10617 10619 10619 10618 10617 10618 10621 10624
10501 10500 10500 10501 10501 10502 10503 10504 10504 10505 10506 10507 10509 10510 10511 10512 10513 10516 10520 10522 10524 10525 10527 10529 10532 10535 10536 10538 10540 10544 10546 10548 10551 10553 10554 10557 10559 10561 10562 10563 10566 10567 10567 10567 10568 10570 10573 10574 10575 10577 10578 10578 10579 10580 10581 10580 10582 10583 10585 10588 10590 10592 10593 10593 10593 10594 10596 10598 10601 10604 10606 10607 10606 10604 10603 10604 10606 10608 10610 10612 10614 10615 10615 10614 10613 10613 10615 10617
10497 10497 10497 10497 10497 10498 10499 10499 10500 10500 10501 10502 10503 10504 10504 10507 10509 10512 10515 10517 10518 10520 10521 10523 10527 10530 10531 10532 10535 10538 10541 10544 10546 10547 10548 10551 10554 10555 10555 10558 10561 10561 10560 10561 10563 10566 10568 10570 10571 10572 10573 10573 10574 10575 10575 10575 10576 10578 10580 10582 10585 10587 10588 10588 10589 10590 10592 10593 10595 10597 10599 10600 10600 10599 10598 10598 10600 10603 10606 10608 10610 10611 10611 10611 10610 10609 10610 10611
10493 10493 10493 10493 10493 10494 10494 10495 10495 10496 10497 10497 10498 10498 10500 10503 10506 10508 10510 10511 10514 10516 10515 10517 10521 10523 10525 10529 10531 10533 10535 10539 10540 10541 10543 10546 10547 10548 10550 10554 10555 10554 10554 10557 10559 10562 10563 10565 10566 10567 10567 10568 10569 10569 10570 10569 10570 10571 10574 10578 10580 10582 10583 10583 10585 10586 10587 10588 10588 10590 10591 10591 10592 10593 10594 10595 10596 10598 10600 10603 10605 10605 10607 10608 10607 10605 10605 10605
10489 10489 10489 10489 10489 10489 10490 10491 10491 10491 10492 10492 10492 10494 10496 10499 10501 10503 10504 10505 10508 10510 10509 10511 10514 10517 10523 10526 10525 10524 10529 10533 10534 10535 10538 10540 10541 10542 10546 10548 10547 10547 10550 10553 10555 10557 10558 10559 10561 10561 10561 10562 10563 10564 10565 10564 10564 10566 10568 10573 10576 10578 10578 10579 10580 10581 10582 10582 10583 10584 10582 10583 10586 10587 10589 10592 10593 10594 10595 10598 10599 10600 10602 10603 10602 10601 10601 10601
10486 10485 10485 10485 10485 10485 10486 10486 10486 10487 10487 10487 10487 10490 10493 10495 10496 10497 10498 10499 10502 10504 10503 10504 10508 10513 10519 10519 10516 10519 10523 10526 10529 10531 10532 10533 10534 10537 10541 10541 10540 10543 10547 10549 10550 10551 10552 10554 10555 10556 10556 10557 10558 10560 10559 10559 10560 10560 10562 10567 10571 10573 10573 10574 10575 10576 10577 10577 10577 10577 10575 10576 10579 10582 10585 10588 10590 10590 10592 10594 10595 10595 10596 10597 10598 10597 10596 10597
10482 10481 10481 10481 10481 10481 10482 10482 10482 10481 10482 10481 10483 10487 10489 10490 10491 10492 10494 10494 10495 10498 10498 10499 10503 10507 10512 10513 10512 10515 10516 10518 10523 10525 10524 10526 10528 10532 10535 10534 10535 10540 10544 10545 10544 10545 10548 10549 10549 10550 10551 10552 10553 10554 10553 10555 10556 10554 10556 10561 10566 10568 10567 10568 10568 10569 10571 10572 10572 10571 10569 10570 10573 10577 10582 10585 10585 10586 10588 10590 10591 10590 10591 10592 10593 10592 10592 10593
10477 10477 10477 10477 10477 10477 10477 10477 10477 10476 10477 10478 10480 10483 10483 10485 10486 10487 10489 10489 10489 10492 10492 10494 10497 10501 10506 10508 10507 10509 10509 10512 10516 10517 10519 10523 10525 10527 10528 10528 10530 10535 10539 10539 10537 10540 10543 10544 10543 10545 10546 10547 10548 10548 10549 10551 10550 10549 10552 10556 10559 10561 10561 10561 10562 10563 10565 10566 10566 10566 10565 10564 10566 10570 10577 10581 10581 10582 10584 10586 10587 10585 10585 10586 10586 10587 10587 10588
10473 10473 10472 10472 10472 10473 10473 10473 10473 10472 10472 10474 10476 10477 10478 10480 10481 10482 10484 10483 10483 10485 10487 10489 10491 10494 10500 10502 10501 10503 10505 10506 10508 10511 10515 10518 10519 10520 10520 10522 10526 10531 10534 10532 10531 10534 10537 10538 10540 10541 10541 10541 10541 10542 10545 10546 10545 10546 10548 10549 10552 10555 10554 10555 10556 10557 10559 10560 10560 10562 10562 10560 10560 10562 10568 10575 10577 10578 10580 10581 10581 10581 10580 10580 10579 10581 10582 10583
10469 10468 10467 10467 10467 10468 10468 10468 10469 10469 10468 10469 10470 10471 10473 10475 10476 10478 10478 10477 10477 10479 10481 10483 10485 10489 10494 10495 10495 10498 10500 10501 10503 10505 10509 10512 10514 10514 10515 10518 10522 10525 10527 10526 10525 10528 10530 10533 10536 10535 10534 10535 10535 10537 10541 10541 10541 10542 10542 10542 10544 10547 10549 10550 10551 10552 10554 10555 10555 10558 10558 10557 10556 10555 10559 10568 10573 10575 10576 10576 10575 10575 10574 10574 10574 10575 10576 10578
10464 10463 10462 10462 10462 10463 10463 10464 10464 10464 10464 10465 10465 10465 10468 10470 10472 10473 10472 10470 10471 10473 10475 10479 10481 10484 10487 10489 10491 10494 10496 10497 10499 10500 10503 10506 10508 10509 10509 10513 10515 10518 10521 10520 10519 10522 10525 10528 10531 10530 10529 10530 10531 10532 10535 10536 10535 10536 10536 10536 10537 10540 10544 10545 10546 10548 10550 10550 10551 10552 10553 10553 10552 10551 10552 10560 10566 10569 10570 10571 10570 10569 10569 10569 10569 10569 10570 10573
10459 10458 10457 10457 10457 10457 10459 10460 10459 10459 10460 10461 10461 10460 10462 10465 10467 10466 10463 10463 10466 10468 10470 10474 10477 10478 10481 10485 10487 10490 10492 10494 10494 10495 10497 10500 10502 10503 10504 10507 10509 10512 10515 10514 10514 10517 10520 10522 10524 10525 10525 10525 10525 10526 10528 10529 10530 10531 10532 10531 10531 10534 10538 10540 10542 10543 10544 10545 10545 10546 10547 10547 10548 10549 10548 10551 10558 10562 10564 10565 10564 10564 10564 10564 10565 10565 10566 10568
10453 10452 10451 10452 10452 10452 10455 10455 10454 10454 10455 10455 10456 10456 10457 10460 10460 10457 10456 10457 10460 10463 10465 10469 10472 10474 10477 10480 10481 10483 10487 10488 10489 10490 10491 10494 10497 10497 10498 10501 10504 10506 10509 10510 10509 10512 10516 10517 10519 10520 10519 10519 10519 10520 10523 10524 10526 10526 10527 10527 10527 10529 10532 10534 10536 10537 10538 10539 10540 10540 10541 10541 10543 10548 10546 10544 10550 10556 10558 10559 10559 10558 10559 10560 10560 10561 10562 10563
10448 10446 10445 10446 10446 10448 10451 10451 10448 10449 10450 10450 10451 10452 10453 10454 10451 10448 10449 10451 10454 10458 10462 10464 10468 10470 10472 10473 10474 10477 10480 10482 10483 10484 10486 10489 10491 10492 10493 10496 10499 10501 10503 10505 10505 10508 10510 10512 10514 10514 10513 10514 10514 10515 10518 10520 10520 10520 10521 10522 10524 10525 10526 10527 10529 10531 10532 10534 10535 10536 10536 10535 10538 10545 10545 10541 10543 10548 10551 10553 10554 10554 10554 10555 10556 10557 10558 10559
10442 10440 10438 10439 10441 10443 10446 10446 10444 10443 10445 10445 10445 10447 10448 10445 10442 10441 10443 10446 10450 10455 10457 10459 10461 10464 10466 10467 10468 10470 10474 10475 10478 10480 10482 10484 10485 10487 10488 10491 10494 10496 10498 10500 10501 10503 10505 10506 10508 10508 10508 10509 10509 10509 10512 10514 10514 10515 10517 10518 10520 10521 10520 10520 10522 10525 10527 10528 10529 10530 10530 10530 10534 10540 10542 10539 10538 10541 10544 10546 10548 10549 10550 10551 10552 10554 10555 10556
10435 10433 10432 10432 10435 10439 10442 10441 10438 10437 10438 10440 10441 10441 10439 10436 10436 10437 10438 10442 10445 10449 10451 10452 10455 10458 10460 10461 10462 10465 10468 10469 10472 10477 10479 10479 10480 10482 10485 10487 10490 10492 10493 10495 10497 10499 10500 10501 10503 10503 10503 10504 10504 10505 10507 10507 10509 10512 10513 10513 10514 10515 10515 10516 10518 10520 10522 10522 10522 10523 10523 10524 10529 10536 10539 10537 10534 10536 10537 10539 10542 10544 10546 10547 10548 10551 10554 10554
10427 10426 10426 10427 10430 10434 10435 10433 10432 10431 10432 10435 10437 10434 10431 10430 10430 10431 10433 10437 10439 10443 10446 10447 10450 10452 10455 10457 10457 10459 10463 10464 10466 10471 10474 10475 10475 10477 10479 10481 10485 10487 10487 10490 10492 10494 10495 10495 10497 10498 10497 10498 10498 10498 10500 10503 10506 10508 10507 10508 10509 10510 10511 10512 10513 10514 10516 10515 10515 10516 10517 10518 10524 10530 10533 10532 10531 10530 10531 10532 10535 10538 10540 10541 10542 10545 10550 10550
10418 10419 10421 10422 10424 10426 10426 10425 10426 10426 10426 10430 10431 10427 10425 10423 10422 10425 10428 10431 10434 10438 10441 10442 10444 10446 10449 10451 10451 10455 10460 10460 10461 10465 10467 10469 10471 10472 10473 10476 10480 10482 10482 10485 10488 10490 10490 10489 10491 10491 10491 10492 10493 10492 10494 10498 10501 10500 10500 10503 10504 10503 10505 10507 10507 10508 10509 10508 10508 10511 10512 10514 10518 10522 10525 10527 10526 10525 10525 10527 10529 10532 10534 10534 10535 10538 10541 10542
10409 10412 10415 10415 10416 10418 10418 10418 10420 10420 10421 10423 10423 10421 10419 10416 10415 10419 10423 10425 10429 10433 10435 10437 10439 10441 10443 10445 10446 10451 10455 10455 10456 10459 10460 10464 10468 10468 10468 10472 10476 10477 10478 10480 10483 10485 10485 10483 10485 10485 10484 10485 10486 10485 10488 10491 10492 10492 10493 10497 10498 10497 10499 10502 10501 10502 10503 10503 10503 10506 10507 10509 10513 10515 10517 10520 10521 10520 10520 10522 10523 10525 10526 10527 10528 10531 10533 10535
10400 10405 10408 10406 10408 10410 10410 10411 10413 10414 10415 10416 10415 10414 10413 10410 10409 10414 10418 10420 10425 10428 10430 10433 10436 10437 10439 10441 10442 10445 10449 10450 10451 10452 10454 10459 10463 10464 10465 10468 10470 10472 10473 10476 10478 10480 10479 10477 10478 10478 10477 10478 10479 10479 10481 10483 10485 10485 10487 10490 10493 10493 10495 10497 10496 10497 10498 10497 10498 10500 10502 10504 10507 10508 10509 10512 10515 10515 10515 10516 10517 10518 10519 10519 10520 10522 10524 10527
10391 10397 10399 10398 10399 10402 10402 10403 10405 10407 10408 10408 10408 10407 10407 10405 10404 10408 10413 10415 10419 10423 10425 10429 10432 10433 10434 10436 10437 10439 10442 10444 10444 10445 10449 10453 10457 10459 10461 10462 10463 10465 10467 10470 10472 10473 10474 10471 10470 10470 10470 10471 10471 10472 10474 10475 10478 10479 10480 10484 10487 10488 10490 10491 10491 10491 10492 10491 10491 10493 10496 10499 10501 10501 10503 10505 10507 10508 10509 10510 10511 10512 10511 10512 10513 10514 10516 10518
10381 10388 10390 10389 10390 10392 10394 10395 10398 10399 10400 10400 10400 10400 10401 10400 10398 10401 10407 10411 10414 10417 10421 10424 10427 10428 10429 10431 10432 10433 10435 10436 10436 10439 10443 10447 10450 10453 10454 10454 10457 10459 10461 10464 10465 10466 10467 10465 10462 10462 10463 10464 10465 10466 10467 10468 10471 10473 10474 10477 10482 10484 10485 10485 10484 10485 10484 10483 10483 10486 10490 10493 10494 10494 10496 10498 10499 10500 10502 10502 10504 10505 10504 10504 10505 10506 10508 10510
10372 10378 10380 10379 10381 10383 10385 10387 10390 10390 10390 10391 10393 10394 10395 10395 10392 10394 10402 10407 10409 10411 10415 10419 10421 10422 10423 10424 10425 10427 10428 10429 10430 10432 10436 10440 10443 10446 10447 10448 10451 10454 10455 10457 10459 10460 10461 10460 10457 10455 10456 10458 10459 10460 10461 10463 10466 10467 10467 10471 10474 10476 10478 10477 10477 10477 10477 10476 10477 10478 10482 10485 10487 10487 10489 10490 10492 10493 10494 10495 10496 10497 10497 10498 10498 10498 10500 10501
10361 10368 10370 10370 10371 10373 10375 10378 10380 10378 10379 10384 10387 10388 10389 10389 10386 10387 10395 10402 10404 10405 10409 10412 10413 10414 10416 10418 10419 10420 10421 10423 10424 10425 10428 10431 10434 10438 10442 10443 10444 10447 10449 10451 10453 10455 10456 10455 10452 10449 10448 10450 10452 10455 10456 10458 10459 10459 10461 10465 10466 10467 10469 10469 10468 10469 10469 10470 10470 10471 10475 10478 10480 10480 10482 10484 10485 10486 10486 10487 10488 10489 10490 10490 10491 10491 10491 10492
10352 10357 10360 10360 10360 10361 10363 10366 10367 10367 10371 10377 10379 10379 10382 10382 10379 10380 10389 10396 10398 10399 10403 10404 10405 10406 10410 10413 10413 10413 10414 10416 10418 10419 10420 10422 10426 10431 10435 10436 10437 10438 10440 10442 10445 10448 10448 10448 10447 10444 10442 10442 10444 10448 10450 10449 10449 10451 10454 10457 10458 10458 10459 10459 10460 10461 10460 10461 10463 10464 10468 10472 10473 10474 10475 10476 10478 10478 10479 10479 10480 10480 10481 10482 10483 10483 10483 10483
10343 10347 10350 10349 10347 10346 10348 10352 10355 10357 10362 10367 10369 10372 10376 10375 10374 10377 10383 10388 10391 10393 10396 10397 10397 10398 10402 10405 10407 10406 10407 10409 10412 10413 10413 10415 10419 10422 10425 10428 10430 10430 10432 10434 10436 10438 10439 10440 10440 10438 10435 10434 10435 10440 10442 10439 10437 10439 10443 10447 10449 10450 10450 10451 10452 10452 10452 10453 10454 10456 10461 10465 10466 10467 10467 10468 10469 10470 10470 10470 10471 10472 10473 10473 10474 10474 10474 10474
10334 10337 10338 10338 10335 10334 10336 10342 10346 10348 10352 10357 10362 10367 10369 10368 10369 10372 10375 10379 10383 10386 10388 10390 10390 10391 10394 10397 10399 10399 10400 10402 10405 10407 10407 10408 10412 10414 10417 10420 10423 10424 10425 10426 10427 10428 10429 10430 10431 10431 10429 10427 10427 10429 10432 10431 10429 10428 10431 10436 10440 10442 10443 10444 10444 10444 10444 10445 10445 10448 10453 10456 10458 10460 10460 10460 10461 10462 10461 10462 10464 10465 10466 10466 10466 10465 10465 10465
10325 10326 10327 10328 10326 10325 10328 10333 10336 10339 10344 10349 10354 10360 10361 10360 10362 10365 10368 10371 10375 10378 10380 10382 10383 10385 10387 10390 10391 10391 10393 10395 10397 10400 10402 10403 10405 10407 10410 10412 10415 10416 10417 10418 10418 10419 10420 10420 10422 10422 10421 10420 10419 10420 10421 10421 10421 10420 10421 10425 10430 10433 10435 10437 10437 10437 10437 10437 10436 10438 10443 10446 10448 10450 10451 10452 10453 10454 10454 10455 10456 10457 10458 10458 10458 10457 10457 10456
10316 10317 10317 10319 10319 10320 10321 10323 10326 10330 10335 10340 10345 10350 10352 10352 10354 10358 10361 10363 10366 10370 10372 10375 10376 10378 10380 10382 10383 10384 10386 10387 10390 10393 10395 10397 10398 10401 10402 10404 10406 10408 10409 10409 10409 10410 10412 10412 10413 10414 10414 10413 10413 10414 10413 10412 10412 10412 10413 10415 10419 10424 10428 10429 10430 10430 10430 10428 10427 10429 10433 10435 10438 10440 10442 10442 10444 10445 10445 10446 10447 10448 10449 10449 10449 10449 10449 10449
10308 10309 10310 10312 10313 10314 10315 10316 10317 10320 10325 10330 10334 10339 10343 10344 10346 10350 10353 10355 10357 10361 10365 10367 10369 10370 10372 10375 10377 10378 10379 10380 10382 10386 10388 10390 10391 10393 10395 10397 10399 10400 10401 10401 10401 10403 10404 10404 10405 10407 10406 10406 10407 10408 10407 10406 10405 10405 10406 10407 10410 10415 10419 10421 10422 10421 10421 10419 10418 10420 10422 10425 10428 10431 10432 10433 10434 10435 10435 10437 10438 10439 10439 10440 10440 10440 10441 10441
10302 10302 10303 10305 10307 10308 10309 10310 10309 10311 10316 10321 10325 10330 10334 10336 10337 10341 10345 10347 10349 10353 10357 10359 10362 10363 10364 10367 10369 10371 10372 10373 10375 10378 10381 10383 10384 10386 10388 10390 10391 10392 10393 10393 10394 10396 10397 10398 10398 10399 10399 10400 10401 10402 10402 10401 10400 10399 10400 10402 10404 10405 10408 10410 10412 10413 10412 10411 10411 10411 10413 10416 10419 10421 10423 10423 10424 10425 10426 10427 10429 10429 10430 10430 10431 10431 10431 10431
10297 10297 10298 10299 10301 10303 10303 10304 10304 10305 10309 10313 10318 10323 10326 10328 10331 10333 10337 10340 10343 10346 10349 10352 10354 10355 10357 10358 10361 10363 10365 10366 10368 10370 10373 10375 10377 10379 10380 10381 10382 10384 10385 10386 10387 10388 10390 10391 10392 10393 10393 10394 10395 10396 10396 10395 10394 10394 10396 10397 10398 10398 10399 10400 10402 10403 10403 10403 10403 10404 10405 10407 10410 10412 10414 10414 10415 10415 10416 10417 10418 10420 10420 10421 10421 10421 10422 10422